When you browse on this site, cookies collect data to enhance your experience and personalize the content and advertising you see.
Visit our Privacy Policy to learn more. By continuing to use the site, you agree to this use of cookies and data.
  • In Czech Republic
  • List of Countries
  • For 7 days
  • Water Temperature
  • Satellite Maps
  • Weather Map
  • Weather Widgets
  • user-avatar
    Login

    Hourly Weather Chiquimula

    Today, 16 July, Tuesday

    Time Temperature Precipitation Wind Pressure Humidity
    00:00 +23°C° 1.7 mm 1 mps 708 mmHg 98%
    01:00 +23°C° 0 mm 1 mps 708 mmHg 98%
    02:00 +20°C° 0 mm 0 mps 707 mmHg 98%
    03:00 +20°C° 0 mm 0 mps 707 mmHg 98%
    04:00 +20°C° 0 mm 0 mps 707 mmHg 98%
    05:00 +20°C° 0 mm 0 mps 707 mmHg 98%
    06:00 +20°C° 0 mm 0 mps 707 mmHg 98%
    07:00 +23°C° 0 mm 1 mps 708 mmHg 94%
    08:00 +25°C° 0 mm 1 mps 708 mmHg 89%
    09:00 +27°C° 0 mm 1 mps 708 mmHg 85%
    10:00 +28°C° 0 mm 1 mps 708 mmHg 76%
    11:00 +30°C° 0 mm 1 mps 709 mmHg 68%
    12:00 +32°C° 0 mm 1 mps 709 mmHg 60%
    13:00 +31°C° 0.2 mm 2 mps 708 mmHg 62%
    14:00 +31°C° 0.2 mm 2 mps 708 mmHg 63%
    15:00 +31°C° 0.2 mm 2 mps 707 mmHg 65%
    16:00 +29°C° 0.1 mm 2 mps 707 mmHg 70%
    17:00 +28°C° 0.1 mm 1 mps 707 mmHg 76%
    18:00 +27°C° 0.1 mm 1 mps 707 mmHg 81%
    19:00 +26°C° 0.2 mm 1 mps 707 mmHg 85%
    20:00 +25°C° 0.2 mm 1 mps 708 mmHg 89%
    21:00 +24°C° 0.2 mm 1 mps 708 mmHg 93%
    22:00 +24°C° 0.2 mm 1 mps 708 mmHg 94%
    23:00 +23°C° 0.2 mm 1 mps 708 mmHg 96%

    Tomorrow, 17 July, Wednesday

    Time Temperature Precipitation Wind Pressure Humidity
    00:00 +23°C° 0.2 mm 1 mps 708 mmHg 98%
    01:00 +22°C° 0 mm 1 mps 708 mmHg 98%
    02:00 +22°C° 0 mm 1 mps 707 mmHg 97%
    03:00 +22°C° 0 mm 1 mps 707 mmHg 97%
    04:00 +22°C° 0 mm 1 mps 707 mmHg 97%
    05:00 +22°C° 0 mm 1 mps 707 mmHg 96%
    06:00 +22°C° 0 mm 1 mps 707 mmHg 96%
    07:00 +24°C° 0 mm 1 mps 708 mmHg 90%
    08:00 +26°C° 0 mm 1 mps 708 mmHg 84%
    09:00 +27°C° 0 mm 1 mps 709 mmHg 78%
    10:00 +28°C° 0.1 mm 1 mps 709 mmHg 73%
    11:00 +30°C° 0.1 mm 1 mps 709 mmHg 68%
    12:00 +31°C° 0.1 mm 1 mps 708 mmHg 63%
    13:00 +31°C° 0.6 mm 1 mps 708 mmHg 66%
    14:00 +31°C° 0.6 mm 1 mps 707 mmHg 69%
    15:00 +30°C° 0.6 mm 2 mps 707 mmHg 72%
    16:00 +29°C° 1.6 mm 2 mps 707 mmHg 79%
    17:00 +27°C° 1.6 mm 1 mps 707 mmHg 86%
    18:00 +26°C° 1.6 mm 1 mps 707 mmHg 92%
    19:00 +25°C° 0.7 mm 1 mps 707 mmHg 94%
    20:00 +24°C° 0.7 mm 1 mps 707 mmHg 96%
    21:00 +23°C° 0.7 mm 1 mps 708 mmHg 97%
    22:00 +23°C° 0.3 mm 1 mps 708 mmHg 97%
    23:00 +23°C° 0.3 mm 1 mps 708 mmHg 98%

    Day after tomorrow, 18 July, Thursday

    Time Temperature Precipitation Wind Pressure Humidity
    00:00 +23°C° 0.3 mm 1 mps 708 mmHg 98%
    01:00 +23°C° 0.8 mm 1 mps 707 mmHg 98%
    02:00 +20°C° 0.8 mm 0 mps 707 mmHg 97%
    03:00 +20°C° 0.8 mm 0 mps 707 mmHg 97%
    04:00 +20°C° 0 mm 0 mps 707 mmHg 97%
    05:00 +20°C° 0 mm 0 mps 707 mmHg 97%
    06:00 +20°C° 0 mm 0 mps 707 mmHg 97%
    07:00 +22°C° 0.1 mm 0 mps 707 mmHg 94%
    08:00 +25°C° 0.1 mm 1 mps 708 mmHg 90%
    09:00 +26°C° 0.1 mm 1 mps 708 mmHg 86%
    10:00 +27°C° 0.5 mm 1 mps 708 mmHg 82%
    11:00 +29°C° 0.5 mm 1 mps 708 mmHg 77%
    12:00 +30°C° 0.5 mm 2 mps 708 mmHg 72%
    13:00 +29°C° 1 mm 2 mps 708 mmHg 75%
    14:00 +29°C° 1 mm 2 mps 707 mmHg 78%
    15:00 +29°C° 1 mm 2 mps 706 mmHg 80%
    16:00 +27°C° 0.8 mm 2 mps 706 mmHg 85%
    17:00 +26°C° 0.8 mm 2 mps 706 mmHg 89%
    18:00 +25°C° 0.8 mm 2 mps 706 mmHg 94%
    19:00 +24°C° 0.2 mm 1 mps 707 mmHg 95%
    20:00 +23°C° 0.2 mm 1 mps 707 mmHg 96%
    21:00 +23°C° 0.2 mm 1 mps 708 mmHg 98%
    22:00 +22°C° 0 mm 1 mps 708 mmHg 98%
    23:00 +22°C° 0 mm 1 mps 708 mmHg 98%

    19 July, Friday

    Time Temperature Precipitation Wind Pressure Humidity
    00:00 +22°C° 0 mm 1 mps 707 mmHg 98%
    01:00 +22°C° 0 mm 1 mps 707 mmHg 98%
    02:00 +21°C° 0 mm 1 mps 707 mmHg 98%
    03:00 +21°C° 0 mm 1 mps 707 mmHg 98%
    04:00 +21°C° 0 mm 1 mps 707 mmHg 98%
    05:00 +21°C° 0 mm 1 mps 707 mmHg 98%
    06:00 +21°C° 0 mm 1 mps 707 mmHg 97%
    07:00 +23°C° 0 mm 1 mps 708 mmHg 92%
    08:00 +24°C° 0 mm 1 mps 708 mmHg 87%
    09:00 +26°C° 0 mm 1 mps 709 mmHg 82%
    10:00 +28°C° 0 mm 1 mps 709 mmHg 75%
    11:00 +29°C° 0 mm 1 mps 709 mmHg 68%
    12:00 +30°C° 0 mm 2 mps 708 mmHg 61%
    13:00 +31°C° 0 mm 2 mps 708 mmHg 59%
    14:00 +31°C° 0 mm 2 mps 708 mmHg 58%
    15:00 +31°C° 0 mm 2 mps 707 mmHg 57%
    16:00 +29°C° 0 mm 2 mps 707 mmHg 66%
    17:00 +28°C° 0 mm 2 mps 707 mmHg 74%
    18:00 +26°C° 0 mm 2 mps 707 mmHg 82%
    19:00 +25°C° 0 mm 1 mps 707 mmHg 86%
    20:00 +24°C° 0 mm 1 mps 708 mmHg 91%
    21:00 +23°C° 0 mm 1 mps 708 mmHg 95%
    22:00 +22°C° 0 mm 1 mps 708 mmHg 96%
    23:00 +22°C° 0 mm 1 mps 708 mmHg 97%

    20 July, Saturday

    Time Temperature Precipitation Wind Pressure Humidity
    00:00 +22°C° 0 mm 1 mps 708 mmHg 98%
    01:00 +22°C° 0 mm 1 mps 707 mmHg 98%
    02:00 +22°C° 0 mm 1 mps 707 mmHg 97%
    03:00 +21°C° 0 mm 1 mps 706 mmHg 97%
    04:00 +21°C° 0 mm 1 mps 706 mmHg 97%
    05:00 +21°C° 0 mm 1 mps 707 mmHg 97%
    06:00 +21°C° 0 mm 1 mps 707 mmHg 96%
    07:00 +23°C° 0 mm 1 mps 707 mmHg 90%
    08:00 +25°C° 0 mm 1 mps 708 mmHg 83%
    09:00 +27°C° 0 mm 1 mps 708 mmHg 76%
    10:00 +28°C° 0 mm 1 mps 708 mmHg 72%
    11:00 +29°C° 0 mm 1 mps 708 mmHg 69%
    12:00 +30°C° 0 mm 2 mps 708 mmHg 65%
    13:00 +31°C° 0.1 mm 2 mps 707 mmHg 64%
    14:00 +31°C° 0.1 mm 2 mps 707 mmHg 63%
    15:00 +31°C° 0.1 mm 2 mps 706 mmHg 62%
    16:00 +30°C° 1 mm 2 mps 706 mmHg 71%
    17:00 +28°C° 1 mm 2 mps 706 mmHg 79%
    18:00 +27°C° 1 mm 2 mps 706 mmHg 88%
    19:00 +26°C° 3.3 mm 1 mps 707 mmHg 91%
    20:00 +25°C° 3.3 mm 1 mps 707 mmHg 93%
    21:00 +24°C° 3.3 mm 1 mps 707 mmHg 96%
    22:00 +24°C° 5.1 mm 1 mps 707 mmHg 97%
    23:00 +23°C° 5.1 mm 1 mps 707 mmHg 97%

    21 July, Sunday

    Time Temperature Precipitation Wind Pressure Humidity
    00:00 +23°C° 5.1 mm 2 mps 707 mmHg 98%
    01:00 +23°C° 0.2 mm 1 mps 707 mmHg 98%
    02:00 +23°C° 0.2 mm 1 mps 707 mmHg 98%
    03:00 +22°C° 0.2 mm 1 mps 706 mmHg 98%
    04:00 +22°C° 0 mm 1 mps 706 mmHg 97%
    05:00 +22°C° 0 mm 1 mps 706 mmHg 97%
    06:00 +22°C° 0 mm 1 mps 706 mmHg 97%
    07:00 +23°C° 0 mm 1 mps 707 mmHg 91%
    08:00 +25°C° 0 mm 1 mps 707 mmHg 85%
    09:00 +27°C° 0 mm 1 mps 708 mmHg 78%
    10:00 +28°C° 0 mm 1 mps 708 mmHg 72%
    11:00 +30°C° 0 mm 1 mps 708 mmHg 66%
    12:00 +31°C° 0 mm 2 mps 708 mmHg 59%
    13:00 +32°C° 0.1 mm 2 mps 707 mmHg 59%
    14:00 +32°C° 0.1 mm 2 mps 707 mmHg 59%
    15:00 +32°C° 0.1 mm 2 mps 706 mmHg 59%
    16:00 +30°C° 0.6 mm 2 mps 706 mmHg 68%
    17:00 +28°C° 0.6 mm 2 mps 706 mmHg 78%
    18:00 +27°C° 0.6 mm 1 mps 706 mmHg 87%
    19:00 +26°C° 0.9 mm 1 mps 707 mmHg 91%
    20:00 +25°C° 0.9 mm 1 mps 707 mmHg 94%
    21:00 +24°C° 0.9 mm 1 mps 707 mmHg 97%
    22:00 +23°C° 0.8 mm 1 mps 707 mmHg 97%
    23:00 +23°C° 0.8 mm 1 mps 708 mmHg 98%
    Show more